Home > Weather > Bridgeport > Past weeks

Flag for USA Past Weather in Bridgeport, Connecticut, USA — Yesterday and Last 2 Weeks

Now
69 °F

Clear.


Feels Like: 69 °F
Forecast: 64 / 84 °F
Wind: 3 mph from Northwest

Location: Sikorsky Memorial Airport

Current Time: Jun 30, 2016 at 2:46:35 AM

Latest Report: Jun 30, 2016 at 1:52 AM


Visibility: 10 mi

Pressure: 29.93 "Hg

Humidity: 68%

Dew Point: 58 °F

Location of BridgeportLocation

Past Weather in Bridgeport — Graph

°F

Bridgeport Temperature Yesterday

Maximum temperature yesterday: 83 °F (at 3:52 PM)
Minimum temperature yesterday: 70 °F (at 2:52 AM)
Average temperature yesterday: 76 °F

High & Low Weather Summary for the Past Weeks

 TemperatureHumidityPressure
High85 °F (Jun 21, 1:52 PM)93% (Jun 28, 9:52 PM)30.32 "Hg (Jun 28, 9:52 PM)
Low58 °F (Jun 18, 4:52 AM)24% (Jun 22, 6:52 PM)29.72 "Hg (Jun 16, 5:52 PM)
Average72 °F63%30.00 "Hg
* Reported Jun 15 1:52 AM — Jun 30 1:52 AM, Bridgeport, Weather by CustomWeather, © 2016

Note: Actual official high and low records may vary slightly from our data, if they occured in-between our weather recording intervals... More about our weather records

Advertising

Bridgeport Weather History for the Previous 24 Hours

Scroll right to see more
 ConditionsComfort  
Time TempWeatherWind HumidityBarometerVisibility
1:52 AM
Thu, Jun 30
69 °FClear.3 mph68%29.93 "Hg10 mi
12:52 AM71 °FClear.5 mph66%29.92 "Hg10 mi
11:52 PM
Wed, Jun 29
72 °FClear.6 mph61%29.92 "Hg10 mi
10:52 PM75 °FClear.6 mph54%29.91 "Hg10 mi
9:52 PM78 °FPassing clouds.3 mph48%29.90 "Hg10 mi
8:52 PM79 °FPassing clouds.5 mph45%29.87 "Hg10 mi
7:52 PM83 °FSunny.8 mph40%29.86 "Hg10 mi
6:52 PM82 °FSunny.7 mph49%29.85 "Hg10 mi
5:52 PM82 °FPassing clouds.8 mph51%29.84 "Hg10 mi
4:52 PM83 °FSunny.13 mph51%29.85 "Hg10 mi
3:52 PM83 °FPassing clouds.14 mph53%29.85 "Hg10 mi
2:52 PM80 °FSunny.10 mph62%29.85 "Hg10 mi
1:52 PM80 °FPassing clouds.12 mph60%29.85 "Hg10 mi
12:52 PM81 °FPassing clouds.12 mph60%29.85 "Hg10 mi
11:52 AM78 °FSunny.12 mph66%29.87 "Hg10 mi
10:52 AM77 °FScattered clouds.9 mph71%29.87 "Hg10 mi
9:52 AM76 °FPartly sunny.6 mph74%29.87 "Hg10 mi
8:52 AM74 °FSunny.6 mph79%29.88 "Hg8 mi
7:52 AM72 °FBroken clouds.3 mph84%29.87 "Hg7 mi
6:52 AM70 °FPartly sunny.No wind90%29.86 "Hg7 mi
5:52 AM70 °FFog.No wind93%29.85 "Hg3 mi
4:52 AM70 °FFog.7 mph93%29.85 "Hg4 mi
3:59 AM70 °FFog.6 mph93%29.85 "Hg1 mi
2:52 AM70 °FFog.8 mph93%29.85 "Hg2 mi
Weather by CustomWeather, © 2016

See weather overviewHow to use our weather pages